Regional Weather Roundup
Issued by NWS

Home | Current Version | Previous Version | Text Only | Print | Product List | Glossary On
Versions: 1 2 3 4 5 6 7 8 9 10 11 12 13 14 15 16 17 18 19 20 21 22 23 24 25 26 27 28 29 30 31 32 33 34 35 36 37 38 39 40 41 42 43 44 45 46 47 48 49 50
000
ASUS42 KFFC 180310
RWRGA
WEATHER ROUNDUP FOR GEORGIA
NATIONAL WEATHER SERVICE PEACHTREE CITY GA
1000 PM EST SAT FEB 17 2018

NOTE: "FAIR" INDICATES FEW OR NO CLOUDS BELOW 12,000 FEET WITH NO
SIGNIFICANT WEATHER AND/OR OBSTRUCTIONS TO VISIBILITY.

* = USE WITH CAUTION. THE STATIONS MARKED WITH AN ASTERISK MAY NOT
REPORT WEATHER SUCH AS PRECIPITATION, FOG, OR THUNDER AND ARE NOT
QUALITY CONTROLLED BY NWS.

THE REMARK "TC" DENOTES TEMPERATURE READING IN DEGREES CELSIUS.

GAZ001>058-180400-
NORTH GEORGIA

CITY           SKY/WX    TMP DP  RH WIND       PRES   REMARKS
ATLANTA        LGT RAIN  63  62  97 W13       30.13R
ATHENS         CLOUDY    53  52  96 NW8       30.11R
CHAMBLEE       CLOUDY    63  58  83 NW9       30.12R
PEACHTREE CITY CLOUDY    67  56  67 NW6       30.13R
ROME           LGT RAIN  58  57  97 W3        30.15R
WEST ATLANTA   LGT RAIN  63  62  97 NW7       30.13R
GAINESVILLE    LGT RAIN  53  53 100 W5        30.12R
CARTERSVILLE   LGT RAIN  60  60 100 CALM      30.14R


CITY           SKY/WX    TMP DP  RH WIND       PRES   REMARKS
DALTON*        CLOUDY    54  54 100 N13       30.17R
LAWRENCEVILLE* CLOUDY    56  54  93 CALM        N/A
MARIETTA       DRIZZLE   62  59  91 NW9       30.12R
KENNESAW*      LGT RAIN  61  60  97 W7        30.14R FOG
CANTON*        LGT RAIN  61  61 100 W12G20    30.13S
BLAIRSVILLE*   RAIN      56  55  94 N7        30.14R FOG
$$

GAZ059>098-102>109-180400-
CENTRAL GEORGIA

CITY           SKY/WX    TMP DP  RH WIND       PRES   REMARKS
AUGUSTA-BUSH   FAIR      57  56  96 CALM      30.08R
AUGUSTA-DANIEL FAIR      61  56  83 NW6       30.09R
COLUMBUS       FAIR      68  55  63 SW3       30.11R
MACON          FAIR      68  56  65 SW6       30.10R
ROBINS AFB     FAIR      67  56  67 S6        30.10R


CITY           SKY/WX    TMP DP  RH WIND       PRES   REMARKS
LAGRANGE*      CLOUDY    65  59  79 CALM      30.12R
SYLVANIA*      FAIR      69  64  83 SW3       30.11S
MILLEDGEVILLE* FAIR      61  55  82 CALM      30.09S
$$

GAZ099>101-110>166-180400-
SOUTH GEORGIA

CITY           SKY/WX    TMP DP  RH WIND       PRES   REMARKS
SAVANNAH       FAIR      68  60  75 SW7       30.13R
VALDOSTA       FAIR      65  61  87 S6        30.18R
ALMA           FAIR      67  62  84 SW6       30.15R
ST SIMONS      FAIR      63  61  93 CALM      30.16R
FT STEWART     FAIR      67  60  78 SW5       30.12R
ALBANY         FAIR      66  60  81 SW7       30.15S
HUNTER AFB     FAIR      65  62  91 CALM      30.11R
MOODY AFB      FAIR      67  61  81 SW8       30.16R
BRUNSWICK      FAIR      64  59  82 SW3       30.16S


CITY           SKY/WX    TMP DP  RH WIND       PRES   REMARKS
BAINBRIDGE*    FAIR      70  64  83 SW6       30.17R
MOULTRIE*      FAIR      66  61  82 S3        30.17R
VIDALIA*       FAIR      66  63  88 S7        30.12F
WAYCROSS*      FAIR      67  63  86 SW7       30.16R
DOUGLAS*       FAIR      64  63  94 SW6       30.17R
$$



USA.gov is the U.S. government's official web portal to all federal, state and local government web resources and services.